SCP
0 0 0 0 0 0 0 0 0 0 0 0 0 0 0 0 0 0 0 0 0 0 0 0 0 0 0 0 0 0 0 0 0 0 0 0 0 0 0 0 0 0 0
0 0 0 0 0 0 0 0 0 0 0 0 0 0 0 0 0 0 0 0 0 0 0 0 0 0 0 0 0 0 0 0 0 0 0 0 0 0 0 0 0 0 0
0 0 0 0 0 0 0 0 0 0 0 0 0 0 0 0 0 0 0 0 0 0 0 0 0 0 0 0 0 0 0 0 0 0 0 0 0 0 0 0 0 0 0
0 0 0 0 0 0 0 0 0 0 0 0 0 0 0 0 0 0 0 0 0 0 0 0 0 0 0 0 0 0 0 0 0 0 0 0 0 0 0 0 0 0 0
0 0 0 0 0 0 0 0 0 0 0 0 0 0 0 0 0 0 0 0 0 0 0 0 0 0 0 0 0 0 0 0 0 0 0 0 0 0 0 0 0 0 0
0 0 0 0 0 0 0 0 0 0 0 0 0 0 0 0 0 -0 -0 -0 0 0 0 0 0 0 0 0 0 0 0 0 0 0 0 0 0 0 0 0 0 0 0
0 0 0 0 0 0 0 0 0 0 0 0 0 0 0 0 0 -0 -0 -0 0 0 0 -0 0 0 0 0 0 0 0 0 0 0 0 0 0 0 0 0 0 0 0
0 0 0 0 0 0 0 0 0 0 0 0 0 0 0 0 0 0 0 -0 0 0 0 0 0 0 0 0 0 0 0 0 0 0 0 0 0 0 0 0 0 0 0
0 0 0 0 0 0 0 0 0 0 0 0 0 0 0 0 0 0 0 0 0 0 0 0 0 0 0 0 0 0 0 0 0 0 0 0 -0 -0 -0 -0 -0 -0 0
0 0 0 0 0 0 0 0 0 0 0 0 0 0 0 0 0 0 0 0 0 0 0 0 0 0 0 -0 -0 0 0 0 0 0 0 0 -0 -0 0 0 0 0 0
0 0 0 0 0 0 0 0 0 0 0 0 0 0 0 0 0 0 0 0 0 0 0 0 0 0 -0 -0 -0 0 0 0 0 0 0 0 0 0 0 0 0 0 0
0 0 0 0 0 0 0 0 0 0 0 0 0 0 0 0 0 -0 -0 -0 0 0 -0 -0 0 0 0 -0 -0 -0 0 0 0 0 0 0 0 0 0 0 0 0 0
-0 0 0 0 0 0 0 0 0 0 0 0 0 0 0 0 0 -0 -0 -0 0 0 -0 0 0 0 0 0 0 0 0 -0 -0 0 0 0 0 0 0 0 0 0 0
0 0 0 0 0 0 0 0 0 -0 -0 0 0 0 0 0 0 0 0 0 0 0 0 0 0 0 0 0 0 0 0 0 0 0 0 0 0 0 0 0 0 0 0
0 0 0 0 0 0 0 0 0 -0 -0 0 0 0 0 0 0 0 0 0 0 0 0 0 0 0 0 0 0 0 0 0 0 0 0 0 0 -0 -0 0 0 0 0
0 -0 -0 0 0 0 -0 0 0 0 0 0 0 0 0 0 0 0 0 0 0 0 0 0 0 0 0 0 0 0 0 0 0 0 0 0 0 0 0 0 0 0 -0
0 0 0 0 0 0 0 0 0 0 0 0 0 0 0 0 0 0 0 0 0 0 0 0 0 0 0 0 0 0 0 0 0 0 0 0 0 0 0 0 0 0 0
0 0 0 0 0 0 0 0 0 0 0 0 0 0 0 0 0 0 0 0 0 0 -0 0 0 0 0 0 0 0 0 0 0 0 0 0 0 0 0 0 0 0 0
0 0 0 0 0 0 0 0 0 0 0 0 0 0 0 0 0 0 0 0 0 0 -0 -0 -0 0 0 0 0 0 0 0 0 0 0 0 0 0 0 0 0 0 0
0 0 0 0 0 0 0 0 0 0 0 0 0 0 0 0 0 0 0 0 0 0 0 0 0 0 0 0 0 0 0 0 0 0 0 -0 -0 -0 -0 0 0 0 0
0 0 0 0 0 0 0 0 0 0 0 0 0 0 0 0 0 0 0 0 0 0 0 0 0 0 0 0 0 0 0 0 0 0 0 0 -0 -0 -0 -0 0 0 0
0 0 0 0 0 0 0 0 0 0 0 0 0 0 0 0 0 0 0 0 0 0 0 0 0 0 0 0 0 -0 0 0 0 0 0 0 -0 -0 0 0 0 0 0
0 0 0 0 0 0 0 0 0 0 0 0 0 0 0 0 0 0 0 0 0 0 0 0 0 0 0 0 0 0 0 0 0 0 0 0 0 0 0 0 0 0 0
0 0 0 0 0 -0 -0 0 0 0 0 0 0 0 0 0 0 0 0 0 0 0 0 0 0 0 0 0 0 0 0 0 0 0 0 0 0 0 0 0 0 0 0
0 0 0 0 -0 -0 -0 0 0 0 0 -0 -0 0 0 0 0 0 0 0 0 0 0 0 0 0 0 0 0 0 0 0 0 0 0 0 0 0 0 0 0 0 0
0 0 0 0 0 0 0 0 0 0 0 -0 -0 -0 0 0 0 0 0 0 0 0 0 0 0 0 0 0 0 0 0 0 0 0 0 0 0 0 0 0 0 0 0
Wind_Speed
4 4 4 4 4 4 4 4 4 4 5 5 5 5 6 6 5 5 5 5 5 5 5 4 4 3 2 2 3 3 3 4 5 3 2 3 4 4 4 3 3 2 2
3 4 4 4 4 4 4 4 4 5 5 5 5 6 6 6 6 6 6 6 6 6 5 5 5 4 4 3 3 4 3 3 5 6 3 3 3 3 3 3 2 2 1
4 4 4 4 4 4 4 4 4 5 5 5 6 6 6 6 6 6 5 6 6 5 5 5 5 5 5 4 4 4 4 4 4 6 4 3 3 3 3 2 2 1 1
4 4 4 4 4 4 4 4 4 5 5 5 5 6 6 6 7 6 6 6 6 6 6 6 5 5 5 5 5 5 5 6 6 6 5 4 3 2 3 2 1 0 0
4 4 3 3 4 4 5 5 5 5 6 5 6 6 6 6 6 6 6 7 6 7 7 7 7 8 9 6 5 5 6 5 5 5 5 4 2 2 2 1 1 0 1
3 3 3 4 4 4 4 5 5 5 5 6 6 6 7 6 8 10 7 6 6 7 7 6 7 8 10 11 10 8 7 7 6 4 3 4 2 2 2 2 2 2 1
3 3 3 4 4 4 4 5 5 4 5 5 5 6 6 7 10 10 10 7 7 7 6 6 7 7 8 7 10 11 10 8 6 5 5 3 3 2 3 2 2 2 2
3 3 3 3 4 4 4 4 3 3 4 3 4 5 5 7 10 10 10 8 7 7 7 6 6 7 7 7 7 8 7 6 5 4 4 3 3 3 3 3 3 2 1
3 3 3 3 4 3 3 3 3 3 3 3 3 5 6 7 10 9 8 5 6 7 7 7 6 7 8 9 8 8 7 6 7 7 5 4 3 3 4 3 3 3 2
3 3 3 3 3 3 2 2 2 3 3 3 4 4 5 5 9 9 7 4 5 4 5 6 9 8 8 8 6 6 6 3 3 4 5 4 3 3 3 3 3 3 1
3 3 3 3 3 2 2 2 2 3 3 4 4 4 5 5 7 9 8 4 3 3 4 4 4 8 8 8 6 4 2 2 2 3 3 3 3 2 1 0 2 3 3
4 3 3 2 2 3 2 2 2 3 3 3 3 4 4 4 6 7 9 7 4 3 2 2 3 6 7 6 4 3 4 4 3 3 2 2 1 1 1 1 1 2 3
4 3 3 3 3 3 3 2 2 2 2 1 2 2 2 3 5 9 9 9 8 3 2 4 5 6 5 4 5 5 4 3 2 2 1 1 1 1 1 2 2 2 2
3 2 2 3 3 3 3 2 2 2 2 2 1 1 1 2 3 4 4 4 6 5 4 5 6 6 4 3 3 3 2 1 1 1 1 1 2 2 1 1 1 1 2
3 2 2 2 2 2 2 2 1 0 1 2 2 2 2 0 2 2 1 2 2 2 3 3 4 4 4 3 3 2 2 2 1 1 1 1 1 2 2 1 1 1 1
3 2 2 1 1 1 2 2 3 1 2 1 2 3 2 2 2 1 3 3 3 2 3 2 2 2 2 2 1 2 1 1 0 0 0 0 1 1 2 2 1 0 1
3 2 2 2 2 2 2 1 1 3 3 2 1 2 2 3 2 2 3 5 4 2 2 1 1 2 1 1 1 1 1 1 1 0 0 1 1 1 1 2 1 1 2
3 3 3 2 2 2 3 3 2 2 2 3 3 4 5 4 4 4 4 4 3 2 1 1 2 2 2 1 1 1 1 1 1 1 1 1 1 1 1 2 2 2 2
2 2 2 2 2 2 2 2 3 3 3 3 2 3 5 4 5 5 2 0 2 3 3 2 2 2 2 2 2 2 2 2 2 1 1 2 2 1 2 2 3 4 3
2 4 3 2 2 2 2 3 3 3 3 3 4 4 2 1 1 3 2 2 3 3 3 3 3 3 3 2 2 2 2 2 2 2 2 2 2 2 3 4 3 3 3
2 3 4 2 2 3 3 3 3 4 4 4 5 6 6 4 4 4 4 4 4 4 4 4 3 3 3 3 2 3 3 3 3 3 2 3 2 2 3 3 3 4 4
3 3 3 3 3 3 3 3 3 4 5 5 4 4 7 4 4 4 4 5 5 5 4 4 3 3 4 4 4 3 3 3 4 3 3 3 3 3 3 3 3 3 4
3 3 3 4 4 4 4 3 3 4 4 4 4 4 3 4 5 5 5 5 5 4 4 4 4 4 4 4 4 4 5 5 5 5 4 4 4 4 4 4 5 5 5
4 4 4 4 4 4 4 4 4 4 4 4 4 4 5 5 5 6 6 5 5 5 4 4 5 6 8 6 4 4 5 6 6 5 6 5 5 5 4 5 6 6 7
4 4 4 4 4 4 4 4 4 4 4 4 4 4 5 5 5 6 5 5 5 5 6 6 5 6 8 9 8 7 7 8 8 6 5 5 6 6 6 6 6 7 7
4 5 4 4 4 4 4 5 5 5 5 5 5 5 5 5 5 6 5 5 5 5 6 5 7 8 9 8 9 9 9 9 9 8 5 4 6 6 6 6 8 8 8
Wind_Direction
52 48 45 33 28 31 34 29 28 24 24 27 23 26 29 26 21 26 25 27 33 32 30 44 44 45 60 68 80 87 91 103 116 103 79 102 105 114 107 93 94 94 104
62 55 47 34 33 34 33 25 27 28 25 29 31 33 34 30 25 31 31 29 35 36 33 41 39 53 62 68 84 93 96 96 121 122 110 100 93 111 106 106 110 123 133
71 61 49 40 37 34 33 29 31 32 32 36 39 38 33 27 27 30 36 34 35 36 36 43 40 56 63 68 83 91 94 94 97 117 116 98 88 100 95 90 91 65 181
79 72 58 44 38 35 37 38 39 40 43 41 40 39 35 30 28 30 38 39 37 36 38 42 42 52 66 75 83 88 94 95 99 107 109 103 98 94 99 102 81 32 254
84 73 58 49 46 44 45 42 45 47 48 43 43 38 32 32 26 33 39 46 44 42 40 41 47 57 64 71 86 95 102 104 104 107 108 105 106 115 131 140 134 70 357
88 75 65 66 58 52 50 49 51 49 45 46 44 43 38 31 28 41 49 48 45 47 45 41 47 49 57 66 76 83 101 114 115 111 113 124 134 139 135 141 132 108 340
86 79 78 77 69 60 64 55 51 49 51 49 41 44 39 24 33 42 49 56 52 49 47 44 49 46 54 67 69 67 67 80 102 123 126 139 149 168 148 131 135 149 193
87 84 85 79 73 66 63 56 51 52 54 50 43 41 41 27 34 47 56 57 55 50 48 51 56 45 50 68 74 65 58 58 75 94 118 134 150 157 151 151 153 122 46
94 97 98 96 87 74 65 59 56 64 54 48 47 45 45 25 31 49 63 60 56 47 44 46 54 57 56 71 76 71 60 46 60 78 96 108 119 135 137 104 89 86 51
113 108 103 98 97 90 82 72 61 70 65 56 46 39 46 36 32 49 63 67 59 45 35 35 45 58 59 68 78 80 70 43 45 49 49 44 52 57 91 129 139 126 126
112 100 89 91 100 98 78 68 78 73 65 54 45 29 31 32 34 47 60 68 71 55 37 21 21 43 54 60 71 81 81 73 62 64 49 30 23 20 14 100 157 151 158
97 91 86 86 83 81 70 53 60 77 71 52 43 27 13 13 27 38 54 61 73 71 34 357 358 26 39 40 47 48 61 69 64 58 48 23 5 339 319 314 228 204 199
99 95 88 77 64 66 73 67 58 67 77 61 55 43 4 0 8 25 38 46 53 57 7 356 5 17 24 25 23 31 49 63 62 55 34 328 282 280 314 344 347 348 319
118 116 104 88 66 51 55 65 84 83 93 93 99 89 21 7 2 4 12 19 24 23 2 352 4 17 20 4 2 12 32 82 116 125 269 302 326 347 352 351 348 352 349
128 127 117 110 109 79 61 54 94 123 180 155 161 156 141 60 297 326 7 4 356 346 352 6 13 11 8 2 0 357 8 28 41 12 15 356 347 348 334 337 346 5 343
139 142 143 148 143 129 108 39 22 37 30 96 160 166 191 209 234 292 341 352 353 8 47 22 359 353 347 341 349 349 350 349 307 254 335 307 301 311 319 328 340 293 280
163 175 171 175 178 177 175 166 281 335 342 336 288 220 223 237 254 296 334 343 350 39 48 348 320 308 297 291 272 239 272 282 269 209 232 260 267 282 297 308 314 306 288
172 192 191 197 198 200 204 203 202 214 270 297 292 259 253 260 276 300 333 3 354 5 323 285 277 267 255 245 239 241 260 282 271 264 273 278 269 263 286 290 284 272 277
174 191 202 207 211 210 213 215 220 220 227 248 279 286 263 267 287 292 301 209 270 290 288 277 255 247 244 237 241 244 243 254 258 255 267 270 267 253 268 276 279 284 279
209 223 211 202 215 227 227 224 229 227 227 232 241 246 242 198 271 279 256 235 241 256 262 261 257 246 239 239 243 242 245 253 258 254 259 261 259 246 255 270 272 272 271
224 248 251 241 233 230 230 227 223 220 223 228 238 236 203 199 230 245 251 247 239 243 244 241 245 250 242 234 227 227 227 238 239 238 242 249 251 254 258 261 267 269 273
214 233 239 242 247 245 238 232 222 218 223 229 244 254 225 215 231 240 246 248 242 233 226 222 232 236 228 219 212 210 220 232 237 233 236 243 246 254 259 264 269 272 273
216 228 241 246 246 254 257 247 233 227 229 230 231 234 222 222 231 236 243 246 242 237 229 218 224 239 239 227 218 208 215 229 232 225 225 239 248 253 255 259 267 273 275
217 226 235 246 252 251 250 248 242 235 230 230 230 227 225 225 231 237 240 241 239 239 235 225 226 231 234 235 234 229 229 236 236 232 226 232 244 252 255 259 264 267 271
223 230 235 240 246 248 251 250 245 240 234 229 228 229 231 231 235 240 240 238 237 239 241 236 235 237 237 237 238 240 241 241 240 239 235 233 244 250 255 260 265 269 269
228 235 238 239 242 245 245 247 247 240 236 235 232 231 230 230 234 239 240 238 238 241 244 243 241 240 241 242 243 244 245 246 247 244 237 238 245 253 256 260 267 269 273